FWI57Q LFPO-SOCA

Flight info

Callsign FWI57Q
Flight time N/A
Altitude 27000
Route LGL UT176 ROLEN/N0484F370 UZ15 DIDAK DCT AKEMO DCT LAPEX/M085F380 DCT SEPAL DCT 45N015W 40N024W 35N030W/M085F400 30N036W 25N040W 20N044W DCT ROHPL/N0487F400 DCT MOTSI DCT MEBLI DCT REKIM
Aircraft A359/H-SDE2E3GHIJ3J4J5LM1ORWXY/LB1D1

Departure

Time N/A
Airport Paris-Orly Airport (LFPO)

Arrival

Time 2026-04-27 22:26
Airport Cayenne – Félix Eboué Airport (SOCA)
Time Latitude Longitude Altitude Speed Heading
2026-04-27 20:16 18.89708 -44.55471 40133 ft 470 kts 209°
2026-04-27 20:16 18.86772 -44.56936 40132 ft 470 kts 209°
2026-04-27 20:17 18.80836 -44.59898 40128 ft 470 kts 209°
2026-04-27 20:17 18.74949 -44.62832 40128 ft 471 kts 209°
2026-04-27 20:18 18.69014 -44.65788 40128 ft 471 kts 209°
2026-04-27 20:18 18.63091 -44.68736 40129 ft 471 kts 209°
2026-04-27 20:19 18.57183 -44.71674 40130 ft 471 kts 209°
2026-04-27 20:19 18.51264 -44.74615 40132 ft 472 kts 209°
2026-04-27 20:20 18.45310 -44.77571 40128 ft 472 kts 209°
2026-04-27 20:20 18.39379 -44.80514 40127 ft 472 kts 208°
2026-04-27 20:21 18.33451 -44.83453 40127 ft 473 kts 208°
2026-04-27 20:21 18.27502 -44.86400 40125 ft 473 kts 208°
2026-04-27 20:22 18.21533 -44.89355 40125 ft 473 kts 208°
2026-04-27 20:22 18.15582 -44.92298 40124 ft 473 kts 208°
2026-04-27 20:23 18.09648 -44.95231 40121 ft 474 kts 208°
2026-04-27 20:23 18.03686 -44.98176 40121 ft 474 kts 208°
2026-04-27 20:24 17.97732 -45.01144 40121 ft 474 kts 210°
2026-04-27 20:24 17.91940 -45.04405 40122 ft 473 kts 212°
2026-04-27 20:25 17.86178 -45.07769 40120 ft 473 kts 212°
2026-04-27 20:25 17.80385 -45.11097 40121 ft 474 kts 211°
2026-04-27 20:26 17.74607 -45.14370 40118 ft 475 kts 211°
2026-04-27 20:26 17.68803 -45.17644 40120 ft 475 kts 211°
2026-04-27 20:27 17.62991 -45.20921 40117 ft 475 kts 211°
2026-04-27 20:27 17.57146 -45.24216 40116 ft 476 kts 211°
2026-04-27 20:28 17.51324 -45.27496 40116 ft 476 kts 211°
2026-04-27 20:28 17.46493 -45.30216 40116 ft 476 kts 211°
2026-04-27 20:29 17.39661 -45.34060 40115 ft 476 kts 211°
2026-04-27 20:29 17.33834 -45.37337 40114 ft 477 kts 211°
2026-04-27 20:30 17.28010 -45.40608 40114 ft 477 kts 211°
2026-04-27 20:30 17.22172 -45.43886 40115 ft 477 kts 211°
2026-04-27 20:31 17.16342 -45.47157 40112 ft 477 kts 211°
2026-04-27 20:31 17.10472 -45.50448 40114 ft 477 kts 211°
2026-04-27 20:32 17.04636 -45.53717 40110 ft 477 kts 211°
2026-04-27 20:32 16.98802 -45.56982 40107 ft 478 kts 211°
2026-04-27 20:33 16.92939 -45.60262 40111 ft 478 kts 210°
2026-04-27 20:33 16.87071 -45.63542 40110 ft 478 kts 210°
2026-04-27 20:34 16.81233 -45.66803 40107 ft 478 kts 210°
2026-04-27 20:34 16.75348 -45.70088 40107 ft 478 kts 210°
2026-04-27 20:35 16.69486 -45.73358 40106 ft 478 kts 210°
2026-04-27 20:35 16.63615 -45.76631 40104 ft 478 kts 210°
2026-04-27 20:36 16.57782 -45.79880 40109 ft 478 kts 210°
2026-04-27 20:36 16.51916 -45.83146 40109 ft 479 kts 210°
2026-04-27 20:37 16.46027 -45.86421 40105 ft 479 kts 210°
2026-04-27 20:37 16.40169 -45.89677 40105 ft 479 kts 210°
2026-04-27 20:38 16.34303 -45.92936 40102 ft 478 kts 210°
2026-04-27 20:38 16.28435 -45.96193 40101 ft 479 kts 210°
2026-04-27 20:39 16.22543 -45.99462 40103 ft 479 kts 210°
2026-04-27 20:39 16.16668 -46.02718 40102 ft 479 kts 210°
2026-04-27 20:40 16.10804 -46.05967 40107 ft 478 kts 210°
2026-04-27 20:40 16.04941 -46.09212 40103 ft 478 kts 210°
2026-04-27 20:41 15.99076 -46.12457 40098 ft 478 kts 210°
2026-04-27 20:41 15.93230 -46.15690 40100 ft 478 kts 210°
2026-04-27 20:42 15.87339 -46.18944 40101 ft 478 kts 210°
2026-04-27 20:42 15.81505 -46.22166 40101 ft 478 kts 210°
2026-04-27 20:43 15.75628 -46.25408 40093 ft 478 kts 210°
2026-04-27 20:43 15.69756 -46.28646 40089 ft 478 kts 210°
2026-04-27 20:44 15.63902 -46.31873 40101 ft 477 kts 210°
2026-04-27 20:44 15.58063 -46.35088 40101 ft 477 kts 210°
2026-04-27 20:45 15.52208 -46.38310 40088 ft 477 kts 210°
2026-04-27 20:45 15.46334 -46.41540 40086 ft 477 kts 210°
2026-04-27 20:46 15.40494 -46.44749 40084 ft 476 kts 210°
2026-04-27 20:46 15.34665 -46.47950 40080 ft 476 kts 210°
2026-04-27 20:47 15.28815 -46.51162 40074 ft 476 kts 210°
2026-04-27 20:47 15.22942 -46.54384 40091 ft 476 kts 209°
2026-04-27 20:48 15.17115 -46.57578 40093 ft 476 kts 209°
2026-04-27 20:48 15.11292 -46.60768 40078 ft 476 kts 209°
2026-04-27 20:49 15.05426 -46.63980 40088 ft 476 kts 209°
2026-04-27 20:49 14.99582 -46.67177 40082 ft 476 kts 209°
2026-04-27 20:50 14.93747 -46.70367 40082 ft 476 kts 209°
2026-04-27 20:50 14.87901 -46.73562 40069 ft 476 kts 209°
2026-04-27 20:51 14.82038 -46.76765 40082 ft 476 kts 209°
2026-04-27 20:51 14.76188 -46.79960 40085 ft 476 kts 209°
2026-04-27 20:52 14.70348 -46.83145 40081 ft 476 kts 209°
2026-04-27 20:52 14.64466 -46.86351 40066 ft 476 kts 209°
2026-04-27 20:53 14.58612 -46.89540 40081 ft 477 kts 209°
2026-04-27 20:53 14.52768 -46.92721 40078 ft 476 kts 209°
2026-04-27 20:54 14.43970 -46.97508 40075 ft 476 kts 208°
2026-04-27 20:55 14.38145 -47.00676 40075 ft 476 kts 208°
2026-04-27 20:55 14.32302 -47.03851 40063 ft 476 kts 208°
2026-04-27 20:56 14.26446 -47.07031 40078 ft 475 kts 208°
2026-04-27 20:56 14.20617 -47.10193 40075 ft 475 kts 208°
2026-04-27 20:57 14.14774 -47.13363 40073 ft 475 kts 208°
2026-04-27 20:57 14.08913 -47.16540 40063 ft 475 kts 208°
2026-04-27 20:58 14.03088 -47.19696 40075 ft 475 kts 208°
2026-04-27 20:58 13.97228 -47.22869 40071 ft 475 kts 208°
2026-04-27 20:59 13.91371 -47.26039 40061 ft 475 kts 208°
2026-04-27 20:59 13.85524 -47.29202 40074 ft 475 kts 208°
2026-04-27 21:00 13.79712 -47.32342 40068 ft 475 kts 208°
2026-04-27 21:00 13.73862 -47.35502 40072 ft 475 kts 208°
2026-04-27 21:01 13.68008 -47.38662 40056 ft 475 kts 208°
2026-04-27 21:01 13.62127 -47.41837 40069 ft 475 kts 208°
2026-04-27 21:02 13.56293 -47.44983 40065 ft 475 kts 208°
2026-04-27 21:02 13.50450 -47.48132 40060 ft 476 kts 208°
2026-04-27 21:03 13.44602 -47.51282 40063 ft 476 kts 208°
2026-04-27 21:03 13.38710 -47.54454 40061 ft 476 kts 207°
2026-04-27 21:04 13.32859 -47.57603 40061 ft 476 kts 207°
2026-04-27 21:04 13.26993 -47.60757 40052 ft 476 kts 207°
2026-04-27 21:05 13.21138 -47.63904 40055 ft 476 kts 207°
2026-04-27 21:05 13.15236 -47.67074 40061 ft 476 kts 207°
2026-04-27 21:06 13.09380 -47.70218 40058 ft 477 kts 207°
2026-04-27 21:06 13.03531 -47.73356 40051 ft 477 kts 207°
2026-04-27 21:07 12.97664 -47.76504 40054 ft 477 kts 207°
2026-04-27 21:07 12.91775 -47.79660 40057 ft 477 kts 207°
2026-04-27 21:08 12.85886 -47.82815 40051 ft 477 kts 207°
2026-04-27 21:08 12.80016 -47.85959 40049 ft 477 kts 207°
2026-04-27 21:09 12.74160 -47.89093 40049 ft 477 kts 207°
2026-04-27 21:09 12.68298 -47.92228 40044 ft 476 kts 207°
2026-04-27 21:10 12.62413 -47.95374 40044 ft 476 kts 207°
2026-04-27 21:10 12.56565 -47.98499 40046 ft 477 kts 207°
2026-04-27 21:11 12.50689 -48.01638 40046 ft 477 kts 207°
2026-04-27 21:11 12.44795 -48.04784 40049 ft 476 kts 207°
2026-04-27 21:12 12.38937 -48.07909 40046 ft 476 kts 207°
2026-04-27 21:12 12.33062 -48.11042 40044 ft 476 kts 207°
2026-04-27 21:13 12.27208 -48.14161 40037 ft 476 kts 207°
2026-04-27 21:13 12.21363 -48.17275 40049 ft 476 kts 207°
2026-04-27 21:14 12.15479 -48.20409 40036 ft 476 kts 206°
2026-04-27 21:14 12.09582 -48.23546 40041 ft 476 kts 207°
2026-04-27 21:15 12.03729 -48.26659 40052 ft 476 kts 207°
2026-04-27 21:15 11.97825 -48.29799 40034 ft 476 kts 206°
2026-04-27 21:16 11.91965 -48.32913 40040 ft 476 kts 206°
2026-04-27 21:16 11.86115 -48.36021 40044 ft 476 kts 206°
2026-04-27 21:17 11.80219 -48.39151 40041 ft 476 kts 206°
2026-04-27 21:17 11.74371 -48.42253 40035 ft 477 kts 206°
2026-04-27 21:18 11.68469 -48.45381 40025 ft 477 kts 206°
2026-04-27 21:18 11.62563 -48.48513 40029 ft 478 kts 206°
2026-04-27 21:19 11.56694 -48.51620 40034 ft 478 kts 206°
2026-04-27 21:19 11.50822 -48.54731 40035 ft 478 kts 206°
2026-04-27 21:20 11.41947 -48.59430 40026 ft 478 kts 206°
2026-04-27 21:20 11.36057 -48.62544 40032 ft 478 kts 206°
2026-04-27 21:21 11.30162 -48.65662 40035 ft 478 kts 206°
2026-04-27 21:21 11.24257 -48.68783 40023 ft 479 kts 206°
2026-04-27 21:22 11.18373 -48.71889 40018 ft 479 kts 206°
2026-04-27 21:22 11.12461 -48.75010 40023 ft 479 kts 206°
2026-04-27 21:23 11.06510 -48.78149 40017 ft 480 kts 206°
2026-04-27 21:23 11.00608 -48.81266 40016 ft 480 kts 206°
2026-04-27 21:24 10.94693 -48.84386 40024 ft 480 kts 206°
2026-04-27 21:24 10.88763 -48.87511 40020 ft 480 kts 206°
2026-04-27 21:25 10.82865 -48.90620 40033 ft 480 kts 206°
2026-04-27 21:25 10.76916 -48.93752 40024 ft 480 kts 206°
2026-04-27 21:26 10.71000 -48.96865 40024 ft 480 kts 206°
2026-04-27 21:26 10.65062 -48.99981 40028 ft 481 kts 206°
2026-04-27 21:27 10.59094 -49.03117 40017 ft 481 kts 205°
2026-04-27 21:27 10.53178 -49.06232 40014 ft 481 kts 206°
2026-04-27 21:28 10.47222 -49.09367 40006 ft 481 kts 206°
2026-04-27 21:28 10.41290 -49.12483 40007 ft 481 kts 206°
2026-04-27 21:29 10.35356 -49.15597 40007 ft 482 kts 205°
2026-04-27 21:29 10.29395 -49.18718 40019 ft 482 kts 205°
2026-04-27 21:30 10.23438 -49.21839 40010 ft 482 kts 205°
2026-04-27 21:30 10.17470 -49.24969 40026 ft 482 kts 205°
2026-04-27 21:31 10.11526 -49.28084 40013 ft 483 kts 205°
2026-04-27 21:31 10.05547 -49.31216 40009 ft 483 kts 205°
2026-04-27 21:32 9.99599 -49.34333 40009 ft 483 kts 205°
2026-04-27 21:32 9.93640 -49.37452 40011 ft 484 kts 205°
2026-04-27 21:33 9.87668 -49.40577 40002 ft 484 kts 205°
2026-04-27 21:33 9.81707 -49.43790 40008 ft 485 kts 208°
2026-04-27 21:34 9.76880 -49.46757 40006 ft 485 kts 210°
2026-04-27 21:34 9.70191 -49.50970 40013 ft 485 kts 210°
2026-04-27 21:35 9.64454 -49.54515 40007 ft 485 kts 209°
2026-04-27 21:35 9.58689 -49.58032 40010 ft 486 kts 209°
2026-04-27 21:36 9.53868 -49.60962 40008 ft 486 kts 209°
2026-04-27 21:36 9.48076 -49.64482 40004 ft 486 kts 209°
2026-04-27 21:37 9.41314 -49.68590 40004 ft 486 kts 209°
2026-04-27 21:37 9.35535 -49.72104 40005 ft 487 kts 209°
2026-04-27 21:38 9.30684 -49.75054 40004 ft 487 kts 209°
2026-04-27 21:38 9.24890 -49.78574 40004 ft 487 kts 209°
2026-04-27 21:39 9.19086 -49.82096 40002 ft 487 kts 209°
2026-04-27 21:39 9.13285 -49.85616 40002 ft 487 kts 209°
2026-04-27 21:40 9.07455 -49.89150 39998 ft 487 kts 209°
2026-04-27 21:40 9.01665 -49.92662 39999 ft 488 kts 209°
2026-04-27 21:41 8.95817 -49.96206 39997 ft 488 kts 209°
2026-04-27 21:41 8.90028 -49.99715 39999 ft 488 kts 209°
2026-04-27 21:42 8.84215 -50.03244 39996 ft 488 kts 209°
2026-04-27 21:42 8.78371 -50.06782 39996 ft 488 kts 209°
2026-04-27 21:43 8.72574 -50.10288 39997 ft 489 kts 209°
2026-04-27 21:43 8.66732 -50.13825 39992 ft 489 kts 209°
2026-04-27 21:44 8.60919 -50.17343 39993 ft 489 kts 209°
2026-04-27 21:44 8.55044 -50.20896 39993 ft 489 kts 209°
2026-04-27 21:45 8.48272 -50.24986 39991 ft 489 kts 209°
2026-04-27 21:45 8.43429 -50.28034 39989 ft 490 kts 212°
2026-04-27 21:46 8.37776 -50.31834 39989 ft 490 kts 211°
2026-04-27 21:46 8.32089 -50.35623 39991 ft 490 kts 211°
2026-04-27 21:47 8.26372 -50.39412 39987 ft 491 kts 211°
2026-04-27 21:47 8.20684 -50.43176 39989 ft 491 kts 211°
2026-04-27 21:48 8.14970 -50.46954 39988 ft 491 kts 211°
2026-04-27 21:48 8.09263 -50.50725 39985 ft 491 kts 211°
2026-04-27 21:49 8.03531 -50.54511 39987 ft 491 kts 211°
2026-04-27 21:49 7.97814 -50.58288 39989 ft 491 kts 211°
2026-04-27 21:50 7.92109 -50.62055 39985 ft 491 kts 211°
2026-04-27 21:50 7.86406 -50.65818 39984 ft 492 kts 211°
2026-04-27 21:51 7.80678 -50.69597 39985 ft 492 kts 211°
2026-04-27 21:51 7.74967 -50.73364 39986 ft 492 kts 211°
2026-04-27 21:52 7.69227 -50.77149 39982 ft 492 kts 211°
2026-04-27 21:52 7.63521 -50.80910 39982 ft 492 kts 211°
2026-04-27 21:53 7.57808 -50.84674 39978 ft 492 kts 211°
2026-04-27 21:53 7.52072 -50.88452 39979 ft 492 kts 211°
2026-04-27 21:54 7.46368 -50.92208 39980 ft 492 kts 211°
2026-04-27 21:54 7.40612 -50.95997 39980 ft 492 kts 211°
2026-04-27 21:55 7.34910 -50.99749 39980 ft 492 kts 211°
2026-04-27 21:55 7.29149 -51.03540 39980 ft 492 kts 211°
2026-04-27 21:56 7.20552 -51.09193 39980 ft 492 kts 211°
2026-04-27 21:57 7.14844 -51.12946 39979 ft 493 kts 211°
2026-04-27 21:57 7.09119 -51.16708 39977 ft 493 kts 211°
2026-04-27 21:58 7.03380 -51.20477 39978 ft 493 kts 211°
2026-04-27 21:58 6.97631 -51.24252 39979 ft 493 kts 211°
2026-04-27 21:59 6.91904 -51.28013 39978 ft 493 kts 211°
2026-04-27 21:59 6.86177 -51.31773 39975 ft 493 kts 211°
2026-04-27 22:00 6.80443 -51.35536 39976 ft 493 kts 211°
2026-04-27 22:00 6.74724 -51.39287 39971 ft 492 kts 211°
2026-04-27 22:01 6.68958 -51.43068 39971 ft 492 kts 211°
2026-04-27 22:01 6.63244 -51.46814 39974 ft 493 kts 211°
2026-04-27 22:02 6.57509 -51.50574 39968 ft 493 kts 211°
2026-04-27 22:02 6.51765 -51.54337 39970 ft 493 kts 211°
2026-04-27 22:03 6.46040 -51.58085 39968 ft 493 kts 211°
2026-04-27 22:03 6.40309 -51.61839 39787 ft 491 kts 211°
2026-04-27 22:03 6.37594 -51.63618 39467 ft 485 kts 211°
2026-04-27 22:04 6.34770 -51.65468 38947 ft 483 kts 211°
2026-04-27 22:04 6.31975 -51.67297 38220 ft 486 kts 211°
2026-04-27 22:04 6.29126 -51.69161 37502 ft 487 kts 211°
2026-04-27 22:04 6.26279 -51.71023 36818 ft 487 kts 211°
2026-04-27 22:05 6.23432 -51.72886 36125 ft 488 kts 211°
2026-04-27 22:05 6.20611 -51.74731 35414 ft 491 kts 211°
2026-04-27 22:05 6.17716 -51.76624 34614 ft 495 kts 211°
2026-04-27 22:05 6.14840 -51.78505 33742 ft 500 kts 211°
2026-04-27 22:06 6.11901 -51.80427 32831 ft 504 kts 211°
2026-04-27 22:06 6.08971 -51.82342 31921 ft 508 kts 211°
2026-04-27 22:06 6.05985 -51.84295 30988 ft 511 kts 211°
2026-04-27 22:06 6.02987 -51.86255 30012 ft 515 kts 211°
2026-04-27 22:07 6.00000 -51.88208 28977 ft 518 kts 211°
2026-04-27 22:07 5.96979 -51.90184 28275 ft 513 kts 211°
2026-04-27 22:07 5.94028 -51.92113 27587 ft 508 kts 211°
2026-04-27 22:07 5.91069 -51.94048 26887 ft 504 kts 211°
2026-04-27 22:08 5.88124 -51.95972 26174 ft 501 kts 210°
2026-04-27 22:08 5.85241 -51.97855 25482 ft 497 kts 210°
2026-04-27 22:08 5.82334 -51.99755 24800 ft 494 kts 210°
2026-04-27 22:08 5.79488 -52.01613 24116 ft 491 kts 210°
2026-04-27 22:09 5.76608 -52.03494 23388 ft 489 kts 210°
2026-04-27 22:09 5.73765 -52.05348 22615 ft 485 kts 210°
2026-04-27 22:09 5.70962 -52.07176 21912 ft 480 kts 210°
2026-04-27 22:09 5.68216 -52.08968 21244 ft 474 kts 210°
2026-04-27 22:10 5.65443 -52.10777 20575 ft 469 kts 211°
2026-04-27 22:10 5.63637 -52.11955 20144 ft 465 kts 211°
2026-04-27 22:10 5.60055 -52.14292 19279 ft 458 kts 211°
2026-04-27 22:10 5.57366 -52.16045 18650 ft 453 kts 211°
2026-04-27 22:11 5.54760 -52.17746 17999 ft 448 kts 211°
2026-04-27 22:11 5.52160 -52.19442 17257 ft 444 kts 211°
2026-04-27 22:11 5.49574 -52.21130 16510 ft 440 kts 212°
2026-04-27 22:11 5.47025 -52.22758 15784 ft 436 kts 209°
2026-04-27 22:12 5.44377 -52.24234 15085 ft 431 kts 207°
2026-04-27 22:12 5.41775 -52.25612 14698 ft 420 kts 206°
2026-04-27 22:12 5.39220 -52.26961 14442 ft 406 kts 206°
2026-04-27 22:12 5.36786 -52.28248 14299 ft 389 kts 206°
2026-04-27 22:13 5.34437 -52.29492 14182 ft 373 kts 206°
2026-04-27 22:13 5.32185 -52.30685 13888 ft 364 kts 206°
2026-04-27 22:13 5.29948 -52.31869 13390 ft 361 kts 206°
2026-04-27 22:13 5.27752 -52.33034 12896 ft 358 kts 206°
2026-04-27 22:14 5.25582 -52.34185 12096 ft 346 kts 206°
2026-04-27 22:14 5.23473 -52.35303 11015 ft 343 kts 206°
2026-04-27 22:14 5.21381 -52.36412 10036 ft 338 kts 206°
2026-04-27 22:14 5.19285 -52.37522 9237 ft 341 kts 206°
2026-04-27 22:15 5.17215 -52.38619 8787 ft 336 kts 206°
2026-04-27 22:15 5.15157 -52.39709 8336 ft 331 kts 206°
2026-04-27 22:15 5.13173 -52.40762 8105 ft 320 kts 206°
2026-04-27 22:15 5.11238 -52.41788 7891 ft 308 kts 205°
2026-04-27 22:16 5.09374 -52.42776 7661 ft 299 kts 205°
2026-04-27 22:16 5.07538 -52.43748 7323 ft 295 kts 205°
2026-04-27 22:16 5.05747 -52.44695 6986 ft 292 kts 205°
2026-04-27 22:16 5.03944 -52.45649 6739 ft 291 kts 205°
2026-04-27 22:17 5.02171 -52.46588 6502 ft 291 kts 205°
2026-04-27 22:17 5.00373 -52.47540 6270 ft 290 kts 205°
2026-04-27 22:17 4.98597 -52.48480 6052 ft 288 kts 205°
2026-04-27 22:17 4.96840 -52.49411 5804 ft 287 kts 205°
2026-04-27 22:18 4.95093 -52.50387 5554 ft 287 kts 207°
2026-04-27 22:18 4.93364 -52.51396 5339 ft 286 kts 208°
2026-04-27 22:18 4.91655 -52.52392 5127 ft 285 kts 208°
2026-04-27 22:18 4.89941 -52.53385 4901 ft 282 kts 207°
2026-04-27 22:19 4.88290 -52.54342 4698 ft 274 kts 207°
2026-04-27 22:19 4.86666 -52.55281 4455 ft 267 kts 207°
2026-04-27 22:19 4.85387 -52.56018 4265 ft 261 kts 207°
2026-04-27 22:19 4.83821 -52.56921 4046 ft 255 kts 207°
2026-04-27 22:20 4.82305 -52.57782 3826 ft 249 kts 205°
2026-04-27 22:20 4.80694 -52.58265 3601 ft 240 kts 178°
2026-04-27 22:20 4.79099 -52.57901 3435 ft 233 kts 153°
2026-04-27 22:20 4.77639 -52.57235 3271 ft 231 kts 151°
2026-04-27 22:21 4.76199 -52.56554 3088 ft 224 kts 150°
2026-04-27 22:21 4.74922 -52.55753 2918 ft 213 kts 133°
2026-04-27 22:21 4.74185 -52.54557 2804 ft 197 kts 103°
2026-04-27 22:21 4.74153 -52.53245 2701 ft 181 kts 76°
2026-04-27 22:22 4.74584 -52.52095 2579 ft 176 kts 64°
2026-04-27 22:22 4.75115 -52.50982 2460 ft 176 kts 64°
2026-04-27 22:22 4.75669 -52.49900 2343 ft 175 kts 63°
2026-04-27 22:22 4.76181 -52.48780 2220 ft 176 kts 66°
2026-04-27 22:23 4.76676 -52.47672 2103 ft 175 kts 65°
2026-04-27 22:23 4.77181 -52.46581 1952 ft 170 kts 64°
2026-04-27 22:23 4.77682 -52.45523 1747 ft 161 kts 64°
2026-04-27 22:23 4.78135 -52.44544 1546 ft 151 kts 66°
2026-04-27 22:24 4.78554 -52.43624 1341 ft 141 kts 65°
2026-04-27 22:24 4.78950 -52.42764 1158 ft 129 kts 65°
2026-04-27 22:24 4.79320 -52.41957 1007 ft 129 kts 65°
2026-04-27 22:24 4.79695 -52.41141 832 ft 128 kts 64°
2026-04-27 22:25 4.80069 -52.40339 687 ft 128 kts 66°
2026-04-27 22:25 4.80448 -52.39508 499 ft 133 kts 65°
2026-04-27 22:25 4.80839 -52.38661 366 ft 134 kts 64°
2026-04-27 22:25 4.81226 -52.37814 164 ft 131 kts 64°
2026-04-27 22:26 4.81591 -52.37004 36 ft 126 kts 65°
2026-04-27 22:26 4.81886 -52.36363 35 ft 71 kts 65°
2026-04-27 22:26 4.82008 -52.36096 35 ft 17 kts 65°
2026-04-27 22:26 4.82054 -52.36001 35 ft 12 kts 58°
2026-04-27 22:27 4.82096 -52.35973 35 ft 7 kts 12°
2026-04-27 22:27 4.82143 -52.35990 35 ft 8 kts 317°
2026-04-27 22:27 4.82182 -52.36043 35 ft 11 kts 306°
2026-04-27 22:27 4.82206 -52.36086 35 ft 1 kts 260°
2026-04-27 22:28 4.82190 -52.36112 35 ft 12 kts 240°
2026-04-27 22:28 4.82154 -52.36175 35 ft 5 kts 240°
2026-04-27 22:28 4.82132 -52.36214 35 ft 8 kts 239°
2026-04-27 22:28 4.82117 -52.36252 35 ft 5 kts 272°
2026-04-27 22:29 4.82129 -52.36273 35 ft 4 kts 309°
2026-04-27 22:29 4.82153 -52.36289 35 ft 4 kts 332°
2026-04-27 22:29 4.82160 -52.36292 35 ft 1 kts 333°
2026-04-27 22:29 4.82165 -52.36295 35 ft 1 kts 333°
2026-04-27 22:30 4.82171 -52.36298 35 ft 1 kts 333°
2026-04-27 22:30 4.82176 -52.36300 35 ft 0 kts 334°